TimeEDT,TemperatureF,Dew PointF,Humidity,Sea Level PressureIn,VisibilityMPH,Wind Direction,Wind SpeedMPH,Gust SpeedMPH,PrecipitationIn,Events,Conditions,WindDirDegrees,DateUTC
12:51 AM,64.0,62.1,93,29.93,10.0,Calm,Calm,-,N/A,,Clear,0,2013-09-01 04:51:00
12:58 AM,64.4,62.6,94,29.95,10.0,Calm,Calm,-,N/A,,Scattered Clouds,0,2013-09-01 04:58:00
1:51 AM,64.0,62.1,93,29.91,8.0,Calm,Calm,-,N/A,,Partly Cloudy,0,2013-09-01 05:51:00
1:59 AM,64.4,62.6,94,29.94,1.8,WSW,3.5,-,N/A,,Scattered Clouds,240,2013-09-01 05:59:00
2:02 AM,64.4,62.6,94,29.94,0.8,WSW,3.5,-,N/A,,Mist,240,2013-09-01 06:02:00
2:32 AM,62.6,62.6,100,29.94,2.0,Calm,Calm,-,N/A,,Mostly Cloudy,0,2013-09-01 06:32:00
2:40 AM,62.6,62.6,100,29.94,6.0,Calm,Calm,-,N/A,,Mostly Cloudy,0,2013-09-01 06:40:00
2:51 AM,63.0,61.0,93,29.91,4.0,Calm,Calm,-,N/A,,Mostly Cloudy,0,2013-09-01 06:51:00
2:58 AM,62.6,62.6,100,29.93,2.5,Calm,Calm,-,N/A,,Mostly Cloudy,0,2013-09-01 06:58:00
3:01 AM,62.6,62.6,100,29.93,1.8,Calm,Calm,-,N/A,,Mostly Cloudy,0,2013-09-01 07:01:00
3:24 AM,62.6,60.8,94,29.92,3.0,Calm,Calm,-,N/A,,Mostly Cloudy,0,2013-09-01 07:24:00
3:28 AM,62.6,62.6,100,29.92,1.5,Calm,Calm,-,N/A,,Mostly Cloudy,0,2013-09-01 07:28:00
3:51 AM,63.0,61.0,93,29.88,1.5,Calm,Calm,-,N/A,,Overcast,0,2013-09-01 07:51:00
4:21 AM,62.6,60.8,94,29.92,3.0,Calm,Calm,-,N/A,,Mostly Cloudy,0,2013-09-01 08:21:00
4:44 AM,62.6,60.8,94,29.92,10.0,Calm,Calm,-,N/A,,Scattered Clouds,0,2013-09-01 08:44:00
4:51 AM,62.1,61.0,96,29.88,10.0,Calm,Calm,-,N/A,,Mostly Cloudy,0,2013-09-01 08:51:00
5:51 AM,63.0,61.0,93,29.90,10.0,Calm,Calm,-,N/A,,Mostly Cloudy,0,2013-09-01 09:51:00
5:58 AM,62.6,60.8,94,29.93,10.0,Calm,Calm,-,N/A,,Mostly Cloudy,0,2013-09-01 09:58:00
6:20 AM,62.6,62.6,100,29.93,6.0,Calm,Calm,-,N/A,,Overcast,0,2013-09-01 10:20:00
6:51 AM,63.0,62.1,97,29.91,7.0,Calm,Calm,-,N/A,,Overcast,0,2013-09-01 10:51:00
7:27 AM,64.4,62.6,94,29.94,10.0,Calm,Calm,-,N/A,,Mostly Cloudy,0,2013-09-01 11:27:00
7:38 AM,64.4,62.6,94,29.95,9.0,Calm,Calm,-,N/A,,Mostly Cloudy,0,2013-09-01 11:38:00
7:51 AM,64.9,63.0,93,29.93,10.0,Calm,Calm,-,N/A,,Mostly Cloudy,0,2013-09-01 11:51:00
8:51 AM,69.1,64.0,84,29.93,10.0,Calm,Calm,-,N/A,,Mostly Cloudy,0,2013-09-01 12:51:00
9:51 AM,75.0,64.9,71,29.92,10.0,Calm,Calm,-,N/A,,Clear,0,2013-09-01 13:51:00
10:51 AM,77.0,62.1,60,29.91,10.0,Calm,Calm,-,N/A,,Partly Cloudy,0,2013-09-01 14:51:00
11:51 AM,80.1,63.0,56,29.90,10.0,Calm,Calm,-,N/A,,Scattered Clouds,0,2013-09-01 15:51:00
12:51 PM,81.0,63.0,54,29.90,10.0,Calm,Calm,-,N/A,,Scattered Clouds,0,2013-09-01 16:51:00
1:51 PM,80.1,63.0,56,29.90,10.0,Calm,Calm,-,N/A,,Scattered Clouds,0,2013-09-01 17:51:00
2:51 PM,80.1,63.0,56,29.88,10.0,SSW,3.5,-,N/A,,Scattered Clouds,210,2013-09-01 18:51:00
3:51 PM,79.0,64.0,60,29.87,10.0,Calm,Calm,-,N/A,,Clear,0,2013-09-01 19:51:00
4:51 PM,77.0,64.9,66,29.87,10.0,Calm,Calm,-,0.00,Rain,Light Rain,0,2013-09-01 20:51:00
5:51 PM,75.9,66.0,71,29.86,10.0,NW,3.5,-,0.00,,Scattered Clouds,320,2013-09-01 21:51:00
6:51 PM,75.0,66.9,76,29.86,10.0,Calm,Calm,-,N/A,,Clear,0,2013-09-01 22:51:00
7:51 PM,72.0,66.9,84,29.86,10.0,Calm,Calm,-,N/A,,Scattered Clouds,0,2013-09-01 23:51:00
8:51 PM,68.0,64.9,90,29.88,10.0,Calm,Calm,-,N/A,,Clear,0,2013-09-02 00:51:00
9:51 PM,68.0,64.9,90,29.89,10.0,Calm,Calm,-,N/A,,Clear,0,2013-09-02 01:51:00
10:51 PM,64.9,63.0,93,29.90,10.0,Calm,Calm,-,N/A,,Clear,0,2013-09-02 02:51:00
11:32 PM,66.2,64.4,94,29.93,10.0,Calm,Calm,-,N/A,,Mostly Cloudy,0,2013-09-02 03:32:00
11:51 PM,66.0,64.0,93,29.89,10.0,Calm,Calm,-,N/A,,Mostly Cloudy,0,2013-09-02 03:51:00